Theta_e
318 311 312 312 313 314 314 320 325 321 319 323 324 324 321 320 321 326 326 327 331 326 324 325 325 329 331 333 335 337 338 336 334 334 333 333 335 334 334 335 337 338 340 343 346 348 347 350 352 354 353 354 354 356 357 357 358 360 359 360 360 363 364 362 360 359 358 357 358 357 352 353 354 357 360 359 361 360 360 363 365 367 365 369 369 369
319 313 314 316 317 315 313 318 323 320 318 320 322 322 322 322 316 325 325 328 331 326 322 326 327 328 330 332 334 337 336 332 332 333 334 334 334 334 334 336 338 340 342 344 345 346 347 349 352 354 354 356 353 356 357 356 357 359 359 359 360 361 362 362 361 360 358 358 355 354 353 354 354 357 356 358 360 359 361 366 367 367 367 368 368 368
311 311 317 319 315 313 312 315 319 317 317 321 322 321 321 321 325 327 326 328 328 326 324 326 325 325 328 331 333 335 335 335 335 336 336 336 335 334 334 336 339 339 341 343 343 345 346 348 351 353 354 355 355 355 355 357 357 359 360 361 361 361 362 363 364 362 361 361 362 360 356 357 355 359 361 359 361 362 360 362 365 367 369 368 367 367
308 314 319 320 315 311 310 312 316 314 318 322 321 319 316 321 318 316 325 327 327 327 321 326 321 324 331 332 332 336 336 337 338 339 339 339 336 335 335 336 339 336 340 340 341 342 344 348 349 351 352 353 355 357 357 356 357 357 360 363 363 362 363 365 364 364 365 365 365 366 364 362 360 359 361 364 363 363 362 360 362 367 368 367 366 365
311 317 322 316 313 311 309 310 313 313 313 318 318 317 319 319 321 322 322 325 327 327 329 325 320 321 324 323 325 333 338 338 337 337 338 340 340 339 338 337 338 336 339 339 340 341 342 345 346 349 351 352 352 354 356 356 356 354 358 362 364 363 363 365 365 366 367 365 364 364 363 363 362 360 358 357 356 360 362 360 360 361 365 366 365 365
312 312 317 314 311 310 309 308 310 313 311 313 315 315 317 319 319 324 325 320 317 317 323 321 310 313 322 325 325 330 332 333 336 335 335 338 338 337 335 334 337 337 340 340 340 340 342 344 346 349 351 350 351 353 354 355 355 356 358 362 364 363 364 364 366 369 368 364 363 361 357 354 353 353 353 351 352 355 356 355 358 361 362 363 365 364
312 313 315 313 310 309 309 309 311 311 310 310 312 317 317 320 323 324 322 321 313 309 319 326 312 309 322 322 326 329 329 331 335 334 334 336 337 335 335 335 335 335 337 340 341 341 341 343 345 347 349 349 348 351 353 355 357 357 360 363 363 364 363 364 366 369 366 366 364 360 356 354 353 351 353 357 357 357 358 361 359 360 362 364 362 363
313 311 311 312 311 309 308 307 310 311 308 308 310 316 320 324 323 322 321 319 318 324 323 324 322 310 311 320 327 330 330 330 332 332 333 334 336 335 336 335 336 336 337 338 339 341 341 344 344 345 348 348 348 350 353 354 356 360 363 363 363 364 363 363 366 367 366 365 363 361 359 357 355 353 355 358 359 361 362 361 361 362 361 365 364 362
311 308 309 309 310 309 308 311 312 311 309 310 311 315 317 323 325 324 322 318 320 317 311 317 322 313 311 320 328 328 324 327 329 331 331 334 335 336 336 335 336 336 337 338 338 340 340 343 344 345 346 347 348 350 351 354 357 360 363 363 364 363 364 363 367 366 365 366 364 363 360 357 357 358 357 359 360 361 363 362 361 363 362 363 365 364
312 312 311 311 310 308 312 313 311 311 308 312 319 319 322 323 320 322 320 318 319 314 308 313 319 309 311 318 321 328 323 323 327 331 332 333 334 335 334 335 336 337 338 338 338 340 341 343 344 345 346 347 347 349 352 353 356 359 363 362 361 361 362 364 366 366 366 366 365 364 362 360 358 359 361 360 359 362 363 364 364 365 365 361 363 365
311 315 315 312 310 313 314 313 312 311 312 320 319 319 318 320 323 323 321 318 314 307 311 318 320 313 307 316 318 318 319 326 329 333 334 335 335 335 335 335 335 335 337 338 339 339 341 343 344 344 344 347 347 350 352 352 354 357 360 361 361 361 361 364 364 364 365 366 364 364 364 363 361 359 361 361 361 363 364 364 362 364 366 364 360 362
309 310 310 313 314 312 311 308 311 312 315 317 317 316 315 315 319 316 316 319 307 303 314 319 318 317 307 316 322 327 328 328 329 331 332 333 334 333 334 334 335 336 337 337 337 338 340 342 344 345 345 346 348 349 352 350 353 356 358 361 360 361 361 362 363 363 364 363 364 364 365 364 364 364 358 359 360 361 362 361 362 363 364 365 363 364
306 306 310 310 315 311 309 307 308 310 315 315 315 315 307 305 309 303 309 302 305 304 312 317 318 314 312 317 325 329 329 328 331 332 334 334 333 334 333 335 336 337 337 337 338 339 339 340 342 343 346 349 352 351 353 350 351 354 358 360 359 360 362 362 362 362 363 363 363 362 362 365 366 364 363 361 360 363 363 363 364 363 363 364 364 363
302 308 308 308 310 312 310 304 305 306 312 312 311 310 305 301 300 298 303 307 306 311 316 317 321 312 319 321 328 329 332 335 335 336 335 336 335 335 334 335 336 337 339 337 337 339 340 341 343 345 346 349 352 353 354 352 352 354 356 360 359 360 361 362 361 361 361 362 363 363 363 364 366 365 364 363 362 363 363 365 364 361 358 361 362 363
296 297 303 306 303 311 309 307 309 309 311 311 314 312 308 307 301 298 302 301 300 305 313 320 311 311 312 318 327 330 336 335 335 339 338 337 339 338 337 338 337 338 340 339 337 338 339 341 344 344 346 349 352 351 351 352 355 357 357 360 360 359 361 361 361 361 360 361 362 362 363 364 366 363 362 363 363 364 364 363 364 365 363 360 362 363
299 300 306 310 309 310 307 310 311 312 313 314 315 316 309 307 312 304 307 305 306 306 310 311 311 318 318 328 331 330 332 332 335 336 338 335 336 340 338 336 336 338 339 340 339 339 341 343 346 345 347 349 351 353 352 353 357 357 358 361 361 360 361 360 362 361 361 361 361 363 363 363 365 364 363 363 366 367 366 367 366 367 366 365 365 366
300 298 306 308 310 309 309 310 310 314 304 310 312 308 311 317 313 308 308 309 310 309 306 316 314 319 324 324 329 332 330 328 333 336 334 336 335 339 340 338 338 339 340 342 340 340 342 343 345 346 348 348 348 350 351 355 358 360 360 360 361 360 362 361 362 361 362 361 361 362 362 361 362 361 362 360 362 360 365 368 366 364 363 365 368 365
299 299 306 305 304 309 312 311 311 312 314 312 306 311 318 320 316 311 303 307 305 301 306 312 310 314 313 309 327 329 328 327 330 331 334 334 337 336 339 340 340 339 341 344 345 345 345 345 346 347 348 347 348 349 353 358 359 361 361 359 360 359 360 359 360 359 360 361 360 361 361 362 362 360 359 360 361 362 364 366 367 367 365 365 364 364
304 298 303 306 306 308 311 311 308 311 314 311 312 319 310 304 303 309 306 300 300 300 304 308 311 313 315 313 322 324 325 327 328 331 332 333 336 336 336 339 342 342 342 343 343 343 344 345 347 349 350 351 353 354 356 357 358 359 360 358 355 355 357 357 356 358 360 361 359 359 360 360 360 360 361 361 363 365 364 362 362 364 365 364 366 365
305 298 301 307 306 308 309 307 300 305 310 314 317 314 316 313 309 306 305 307 308 303 302 306 308 307 318 317 323 323 328 329 329 329 330 334 336 336 335 337 340 342 343 343 343 343 344 345 346 349 349 351 353 353 353 355 357 357 359 360 357 357 358 358 356 357 358 359 358 357 360 361 362 362 360 363 364 362 362 362 362 364 362 364 365 364
304 306 298 303 308 308 301 305 303 306 305 306 307 309 313 312 315 312 310 307 306 303 304 303 303 309 322 330 327 330 331 331 331 329 331 334 337 338 338 339 341 344 344 343 342 342 344 345 344 346 351 352 354 354 353 354 357 356 357 358 359 356 356 356 355 358 359 358 358 359 359 358 360 358 358 359 361 361 362 364 365 362 363 365 364 365
304 304 299 302 302 301 303 308 308 309 309 307 306 305 309 308 307 303 302 311 310 305 300 303 300 314 321 330 332 330 332 332 332 331 332 336 337 338 340 340 341 342 344 343 342 341 342 344 344 345 349 352 353 353 352 352 354 356 358 359 361 360 360 358 355 357 360 360 358 357 358 358 358 358 357 356 357 358 360 363 364 366 366 363 365 366
310 308 303 301 302 303 306 310 311 312 312 310 309 307 310 311 310 306 298 305 308 308 311 310 305 312 326 329 331 331 332 334 334 333 333 335 337 339 341 343 345 346 344 342 342 342 342 344 345 345 349 352 353 354 353 354 355 357 359 360 362 361 363 363 361 356 362 360 359 359 357 357 357 357 357 354 354 354 355 359 363 366 364 360 361 365
311 305 301 302 307 307 309 310 311 312 311 309 309 310 309 308 310 309 308 311 308 308 306 306 303 311 323 331 330 332 334 333 336 336 335 335 338 340 342 344 346 346 349 347 347 347 349 347 347 348 350 351 353 354 353 354 357 358 359 361 362 362 364 364 362 359 364 362 360 358 356 357 356 354 354 352 352 352 353 353 357 360 361 359 358 360
304 308 305 300 300 301 303 306 307 309 309 307 306 309 310 311 312 312 312 313 307 308 308 304 299 310 326 329 330 331 331 331 333 336 337 336 337 337 338 339 341 344 346 347 350 351 350 348 348 350 351 353 353 353 355 355 357 358 359 361 362 362 364 362 363 361 362 362 360 359 356 354 354 353 353 351 350 351 351 352 352 357 357 356 356 358
307 306 306 297 295 293 292 293 297 300 303 307 309 309 310 309 310 309 305 309 301 309 310 306 305 318 325 328 328 330 330 331 333 334 336 338 337 336 337 338 340 341 342 345 346 346 347 350 353 354 354 354 353 353 355 356 357 358 359 361 362 362 362 362 364 364 365 364 360 362 361 359 357 354 354 352 350 350 351 350 351 353 355 355 355 358
307 308 309 305 300 300 302 306 305 309 307 304 306 308 309 310 310 311 310 306 302 308 310 310 310 319 321 323 325 327 329 328 329 333 333 335 336 338 339 339 340 341 342 344 345 347 348 348 351 354 356 356 354 353 354 355 356 357 357 359 360 362 362 363 364 363 364 363 362 364 365 362 357 357 355 356 354 352 352 352 351 351 351 353 353 354
308 305 304 304 304 303 303 303 303 305 306 306 305 306 309 309 309 308 306 304 312 306 304 314 318 312 319 323 325 326 328 329 329 331 332 334 335 336 337 339 340 341 342 345 344 344 345 346 348 350 353 353 354 356 357 357 356 357 358 358 359 361 363 364 364 363 364 363 362 365 364 363 363 363 361 360 362 359 356 354 354 355 355 355 355 353
306 302 303 305 302 303 303 303 305 306 307 307 307 307 308 310 310 308 308 310 311 306 303 316 320 313 318 323 326 329 330 329 329 330 332 334 335 337 337 337 337 338 341 342 343 343 343 345 347 348 349 350 352 352 354 353 353 355 355 355 358 359 359 360 362 362 363 363 363 364 364 364 365 364 365 365 365 364 361 359 359 360 360 361 357 352
310 303 304 304 302 303 304 305 306 306 306 307 308 309 311 310 310 310 310 311 311 314 313 315 319 315 323 325 327 330 332 330 331 334 334 333 333 335 335 335 335 337 339 341 342 344 343 344 345 346 348 350 348 350 350 351 352 351 352 353 354 357 359 359 359 360 359 361 362 364 364 362 362 362 364 363 363 363 364 362 362 360 361 360 360 359
308 302 308 305 303 301 303 305 306 306 306 306 308 309 309 311 312 314 314 315 315 312 313 313 316 321 328 331 330 332 332 332 332 332 331 332 333 333 334 334 336 336 338 340 341 342 344 345 345 345 346 347 348 350 350 350 351 351 352 353 354 355 357 359 358 359 359 358 359 359 361 360 359 361 362 362 363 363 362 363 362 362 362 362 362 362
308 305 306 304 302 300 303 303 304 305 306 306 306 307 308 309 311 313 312 318 314 313 316 315 315 317 327 330 331 331 330 330 330 331 331 332 332 333 333 335 335 336 338 337 338 341 344 343 342 344 345 346 348 346 346 347 348 348 349 350 352 352 354 356 356 356 355 354 355 355 355 357 358 357 358 361 361 361 362 362 362 362 363 361 360 362
307 306 303 302 300 300 302 303 302 303 303 301 303 306 308 309 312 314 317 319 319 319 315 311 314 328 328 330 328 328 328 329 329 330 331 333 334 334 334 333 333 335 337 337 336 338 338 340 341 343 345 345 343 344 345 346 346 348 348 351 352 353 353 353 353 354 353 352 352 352 353 354 355 354 355 357 358 359 360 360 359 359 360 361 363 361
308 307 304 307 299 299 301 302 303 300 295 297 306 311 312 309 310 311 313 318 320 322 320 322 326 330 329 328 327 327 327 329 330 332 334 334 335 334 332 332 333 334 335 335 334 333 334 334 334 336 335 335 337 339 340 341 342 345 348 348 348 348 349 348 350 351 350 350 351 353 355 355 355 355 355 355 354 354 355 356 357 359 360 361 362 361
305 305 306 308 301 298 302 302 298 293 297 304 308 308 310 313 311 313 318 319 321 322 322 323 324 327 329 329 329 329 330 331 331 331 332 334 335 334 332 332 332 332 333 334 332 331 330 330 331 332 331 332 335 336 337 336 337 338 339 338 338 340 342 344 344 344 344 345 347 351 354 353 354 355 355 355 355 354 355 355 356 356 358 360 360 360
304 304 306 304 305 302 299 298 289 294 301 305 306 308 310 311 311 312 316 318 320 320 322 323 325 327 327 327 328 332 331 330 331 332 333 333 335 335 332 331 331 331 332 332 330 331 331 331 332 331 330 333 334 334 333 333 335 335 335 337 336 336 336 337 337 339 344 345 346 346 347 347 349 351 351 351 352 352 352 352 354 353 355 356 359 357
305 306 304 302 305 296 298 297 296 302 301 302 302 305 307 306 307 308 309 313 320 321 322 324 324 325 325 326 329 329 330 328 326 327 331 332 332 334 333 332 332 331 330 331 332 332 332 333 332 332 332 331 330 331 332 333 334 334 334 335 334 335 335 335 335 337 340 342 343 345 346 347 346 347 349 349 349 349 349 350 350 353 355 354 354 355
308 306 307 302 301 304 298 295 296 295 293 299 305 308 311 312 311 311 312 314 318 322 325 325 324 325 324 326 327 327 328 324 320 323 328 331 333 332 333 332 331 330 329 330 332 331 332 332 332 331 331 331 330 331 333 332 332 331 331 331 333 333 333 333 333 335 338 338 340 342 342 344 346 346 347 348 348 349 350 351 351 350 351 351 350 351
306 307 308 302 301 300 299 295 293 292 296 302 306 309 311 312 312 312 311 307 313 321 326 325 324 324 325 325 326 327 323 318 318 322 327 330 331 331 329 329 328 328 327 328 328 326 325 328 330 330 332 330 329 331 334 334 333 330 329 329 330 332 331 331 332 334 337 338 340 341 342 344 345 346 346 348 349 349 348 348 347 349 350 347 345 344
304 304 303 300 301 301 300 295 293 300 300 307 309 309 311 312 311 310 301 302 311 313 323 325 324 324 325 327 326 325 322 319 320 323 327 328 330 329 329 327 326 325 325 326 327 329 329 329 329 328 328 329 331 331 332 332 331 331 329 329 329 329 330 331 333 334 336 338 340 340 342 344 345 347 347 346 348 348 348 348 348 348 348 346 345 342
300 301 302 300 299 299 299 299 301 301 307 310 311 311 312 311 309 301 295 307 313 316 319 327 327 327 327 326 326 323 325 328 328 329 330 329 328 329 331 329 327 326 326 327 328 332 329 328 328 327 328 329 330 329 330 330 329 329 329 328 328 327 329 333 334 334 334 335 336 338 339 339 342 341 342 344 345 345 345 345 345 344 344 342 343 342
300 300 300 301 298 298 299 296 298 303 308 312 314 313 315 310 302 297 308 315 315 316 321 327 328 328 328 328 328 329 328 329 329 329 329 330 330 330 330 329 328 328 330 331 331 329 327 326 326 326 326 328 328 328 329 329 328 328 329 328 326 328 330 331 332 334 336 336 335 335 337 337 338 339 336 338 340 340 341 343 344 344 342 341 342 342
298 299 297 297 300 300 299 296 295 290 307 313 313 314 315 307 307 311 313 315 317 318 320 325 327 330 329 328 330 329 327 326 327 327 329 330 329 329 329 329 329 328 328 328 328 327 326 324 323 323 324 324 324 325 326 327 326 326 327 326 327 329 330 331 331 332 334 335 335 336 337 340 339 338 338 338 337 337 336 338 341 342 343 341 341 340
307 301 298 299 302 297 296 294 294 305 310 314 312 306 310 312 313 315 314 314 316 321 324 325 328 330 330 330 327 327 326 326 326 327 329 329 328 328 329 330 330 330 329 328 327 327 327 325 325 324 326 326 328 327 327 327 325 325 324 324 327 328 329 330 330 331 332 333 333 334 334 334 336 339 340 339 339 338 338 337 337 338 338 339 338 336
309 305 307 299 306 304 301 304 310 313 314 314 313 313 314 316 316 316 316 316 317 319 323 326 326 327 329 331 328 326 326 326 326 327 326 327 328 329 330 330 330 330 328 328 327 328 327 325 325 324 325 326 328 328 329 328 326 325 324 325 327 326 326 327 329 330 329 329 330 332 333 335 335 336 336 336 336 336 335 336 336 335 337 338 335 335
310 312 312 312 306 312 313 313 314 314 314 314 315 316 316 317 318 318 318 317 319 321 324 324 326 326 328 330 327 326 326 327 324 324 324 325 326 328 328 328 328 328 328 327 327 327 326 325 325 324 323 324 326 326 328 326 327 326 326 327 328 327 325 325 325 326 326 327 329 329 331 330 330 332 334 333 333 333 333 333 332 332 333 334 333 334
310 311 310 304 308 305 299 314 312 313 314 315 315 316 318 318 317 318 318 319 320 322 324 325 326 327 328 329 327 324 324 325 324 324 325 325 323 325 326 326 326 326 325 326 326 326 325 324 322 323 323 322 324 324 324 325 325 326 328 328 326 327 328 327 325 325 325 325 325 327 331 330 329 329 330 331 330 329 330 331 331 332 331 331 330 330
306 314 309 307 306 305 306 311 313 314 315 315 315 315 315 316 316 317 318 320 322 323 323 324 325 325 327 326 326 324 324 326 323 321 322 324 324 323 323 324 324 325 326 326 325 325 324 323 323 324 324 323 325 325 325 326 326 327 327 325 327 327 328 326 325 324 324 324 324 326 326 327 325 329 329 330 330 328 328 329 330 330 330 330 330 330
311 312 303 309 306 307 312 313 314 315 314 315 316 317 318 317 316 316 317 318 320 321 322 323 324 325 325 326 325 322 320 321 322 322 321 322 323 324 324 324 324 324 324 324 324 324 324 324 324 324 323 322 323 323 323 322 322 324 326 326 327 328 327 325 324 325 323 324 325 325 327 326 326 327 329 328 332 329 333 331 328 328 328 330 331 329
310 306 309 307 304 304 308 311 314 308 309 312 314 316 317 319 318 317 317 317 316 318 320 320 321 324 324 324 324 322 320 320 320 321 320 321 322 322 322 321 322 322 324 325 325 326 325 325 325 323 322 321 322 322 322 323 324 325 324 327 328 328 327 326 326 325 324 326 326 326 325 326 326 328 328 328 327 328 329 319 308 316 331 327 321 306
310 313 309 305 305 304 310 315 316 315 313 314 316 318 318 319 319 318 317 316 317 317 318 318 319 320 320 323 324 323 324 323 322 322 320 319 321 322 322 320 320 320 321 322 322 323 323 324 325 325 323 322 322 321 321 322 323 324 325 327 327 327 326 326 325 324 324 325 325 325 326 325 326 327 329 329 327 328 327 326 328 301 298 310 311 303
Wind_Speed
10 10 11 10 9 10 9 10 6 3 5 1 4 1 5 8 8 8 7 6 3 2 6 9 8 11 13 14 13 13 12 11 13 13 12 13 13 13 13 13 12 12 12 12 12 12 11 11 10 9 9 9 8 8 9 8 8 8 7 7 7 6 6 6 5 5 5 5 5 5 6 6 6 5 5 4 4 5 5 6 6 5 5 5 4 4
11 10 11 12 7 4 6 8 6 3 5 5 5 5 3 3 7 5 5 8 6 4 5 6 8 10 11 12 13 12 13 13 13 14 13 13 13 12 13 13 13 12 10 12 12 12 12 10 11 9 9 9 10 9 9 9 8 8 8 8 7 7 6 6 5 5 5 5 4 5 5 5 6 5 5 5 5 5 6 5 5 5 5 5 4 4
11 12 10 12 4 2 3 5 5 5 4 7 6 4 4 6 8 6 8 10 5 3 2 6 7 8 10 13 12 12 12 11 12 13 13 13 13 12 13 13 13 12 11 13 12 12 12 12 12 10 9 9 9 10 10 9 9 8 7 7 7 6 6 5 6 5 5 4 3 2 4 3 5 4 4 5 4 4 6 6 5 4 4 4 4 4
11 12 13 8 3 5 7 5 6 5 4 5 6 5 2 10 8 4 4 10 5 2 5 6 5 4 6 11 11 11 12 10 11 11 11 11 13 13 14 13 13 14 12 13 13 13 13 12 11 10 9 9 9 9 9 10 10 8 7 8 7 7 6 6 5 5 5 4 5 3 3 3 3 5 4 4 4 3 5 6 5 4 4 4 4 5
10 6 12 6 7 7 8 8 7 7 6 5 5 4 8 7 2 3 8 8 5 1 5 7 6 5 7 8 10 9 9 10 12 12 11 11 11 11 12 13 13 15 13 13 14 13 13 13 12 10 9 10 9 9 10 10 10 7 10 9 8 7 7 6 6 5 5 5 5 4 4 4 4 4 4 5 5 5 4 5 6 6 5 5 4 4
10 5 2 8 7 8 8 8 9 8 6 6 4 4 4 5 7 9 14 11 4 6 7 8 4 5 7 9 9 9 10 10 11 13 14 13 12 12 13 13 14 14 13 13 14 14 13 12 12 11 11 10 10 10 9 9 10 8 9 9 8 7 7 7 7 6 5 5 4 5 5 6 5 5 5 5 6 6 6 6 6 6 6 6 5 5
6 8 10 10 8 9 9 7 9 8 5 5 5 4 0 4 9 11 11 7 7 6 8 8 5 2 6 9 10 11 12 13 11 14 15 14 12 12 11 12 13 14 14 13 13 13 14 13 12 12 11 11 10 10 9 9 10 9 9 9 9 8 7 7 7 7 5 4 4 4 5 5 5 5 5 4 4 5 4 4 6 5 6 5 5 5
4 7 7 8 10 9 9 8 5 8 6 3 7 1 3 5 9 10 9 4 2 5 5 9 4 2 5 9 9 13 14 15 15 15 16 14 14 13 13 13 13 13 14 13 13 13 13 13 13 13 12 11 10 10 10 10 10 10 9 10 9 7 7 7 7 8 5 4 4 4 3 4 4 5 5 5 4 4 3 4 5 5 5 5 4 4
11 8 9 11 10 9 9 7 5 9 8 7 3 3 4 6 6 8 4 6 8 5 6 8 11 4 3 5 9 12 13 15 16 16 17 16 15 15 14 14 14 14 14 15 13 14 14 13 13 12 12 12 11 11 10 10 9 10 10 10 9 8 8 8 9 7 7 4 4 4 4 4 3 4 5 5 5 4 4 4 4 4 4 5 5 4
9 10 10 8 10 9 7 5 2 5 9 5 1 2 4 5 6 6 9 6 3 6 4 7 9 5 4 4 8 9 11 15 15 16 16 17 17 16 15 15 15 14 13 15 15 14 14 13 13 12 12 12 11 10 10 10 10 10 9 10 10 9 8 8 9 8 7 6 5 4 4 5 4 4 3 4 5 4 4 4 4 4 3 4 5 5
4 2 5 7 9 8 5 3 6 7 6 5 5 5 6 5 5 5 1 1 1 5 3 10 12 8 5 9 11 10 10 12 12 12 13 15 16 17 16 15 14 14 14 13 13 14 14 13 13 12 12 11 11 9 10 10 10 10 10 10 11 10 8 9 9 9 8 7 6 5 5 5 5 5 5 5 5 4 5 4 5 4 4 3 4 5
6 7 9 8 8 4 3 2 4 6 5 7 6 6 7 6 4 5 4 3 4 3 4 8 10 11 7 5 7 7 7 12 12 13 15 17 17 16 15 15 15 15 15 15 15 14 15 14 13 11 12 12 11 10 10 10 10 9 9 10 11 10 10 9 9 10 9 7 7 6 6 6 5 6 5 5 5 5 5 5 5 4 4 3 3 4
9 8 7 7 7 11 8 8 6 8 9 9 8 7 9 5 5 6 5 6 6 2 6 6 9 8 9 1 8 11 12 12 11 10 13 16 17 16 16 16 14 14 15 15 14 13 14 13 12 13 11 10 11 10 10 10 10 10 9 10 11 11 11 9 10 10 9 8 8 7 7 6 5 6 5 5 5 5 5 4 5 5 5 4 4 4
8 9 11 10 9 10 10 10 7 10 10 12 10 10 10 8 8 7 6 2 5 4 6 6 8 5 0 5 9 14 11 10 12 10 11 14 15 16 15 15 14 14 14 15 15 14 13 12 12 12 11 11 11 11 11 11 10 9 9 10 11 11 11 10 10 10 10 9 8 8 7 7 5 5 5 5 5 5 4 4 4 5 5 5 5 5
8 11 13 13 10 11 12 11 6 7 11 11 9 11 9 7 6 7 5 6 3 1 7 8 5 1 6 5 5 10 13 13 14 12 8 9 11 14 15 14 15 15 14 13 14 14 14 13 13 12 12 11 11 12 11 10 10 9 9 10 11 11 11 11 10 9 10 9 9 8 8 7 6 6 5 4 4 4 4 4 4 4 4 4 4 4
8 5 5 19 9 14 14 13 7 8 8 10 9 9 11 10 5 6 3 5 5 4 3 5 3 3 2 6 5 6 8 9 10 15 11 10 11 12 14 15 15 14 14 14 14 14 14 14 13 12 12 12 11 11 11 12 11 11 10 11 11 11 11 11 11 10 9 9 8 9 9 8 7 5 5 4 4 4 4 5 4 4 3 3 4 4
5 8 5 13 10 10 14 13 11 9 10 10 10 12 9 7 9 5 3 3 4 6 5 5 3 4 6 7 7 7 10 12 14 15 15 11 11 12 13 15 15 13 14 13 14 13 14 14 13 12 12 11 11 11 11 11 11 12 11 11 12 11 11 11 11 11 10 9 9 9 9 8 8 7 7 6 6 6 5 4 5 5 5 4 4 5
5 2 11 11 15 12 12 14 12 13 10 4 12 11 7 4 7 6 6 2 5 6 3 5 6 5 6 3 7 10 10 11 12 14 16 17 13 14 13 14 14 14 13 13 13 13 13 12 12 12 11 12 11 12 12 12 12 11 11 11 12 12 12 11 11 11 10 10 9 9 9 9 8 8 8 6 5 6 5 6 5 5 5 5 5 4
4 6 8 10 11 13 8 11 14 13 16 9 7 8 11 9 11 7 5 7 7 8 4 6 6 5 6 6 9 11 12 13 13 12 15 17 16 14 13 13 13 14 13 12 13 13 12 13 13 12 12 12 12 11 11 12 11 10 11 11 12 13 13 12 10 10 9 10 8 8 9 9 8 8 7 6 5 4 5 6 6 5 5 5 4 4
4 8 7 7 10 12 11 11 13 12 12 10 6 10 10 7 9 9 7 4 5 6 6 5 4 5 7 3 11 10 10 12 13 14 15 17 16 13 12 12 12 13 12 12 12 12 11 12 13 13 12 12 11 11 11 11 10 11 11 11 11 11 11 11 11 10 10 10 9 8 8 8 8 8 7 6 6 6 6 5 5 5 6 5 5 5
4 2 5 9 5 10 12 11 12 12 12 12 11 10 9 9 7 9 6 8 5 6 5 5 5 3 5 4 3 7 8 9 13 14 13 13 15 14 11 11 11 11 11 11 12 12 12 12 13 12 11 11 10 10 10 11 11 11 11 11 11 12 12 12 11 10 9 9 9 9 9 8 8 9 8 8 7 6 5 5 5 5 4 5 4 5
5 6 7 8 10 10 10 11 14 13 13 11 12 12 11 11 12 9 9 6 7 5 4 6 5 5 3 1 2 5 6 7 11 12 12 13 15 15 12 11 10 10 10 10 11 12 11 11 12 12 11 10 10 10 11 10 10 11 11 10 10 10 10 10 11 10 9 8 8 10 9 9 8 8 8 9 8 8 7 6 6 5 4 5 5 5
5 3 6 5 8 11 10 13 11 7 7 13 12 12 12 11 9 10 9 8 7 7 4 4 5 3 3 2 3 3 6 8 9 12 11 12 14 14 12 11 10 9 10 10 10 10 10 10 9 10 10 11 11 11 11 10 9 10 11 11 10 11 11 10 10 9 9 9 8 10 9 8 8 8 9 10 8 9 9 8 7 6 6 6 6 7
2 5 6 7 4 3 5 4 4 7 8 12 13 13 12 14 13 11 10 4 5 7 8 7 7 5 5 3 5 4 5 6 8 10 11 11 12 11 11 10 8 7 7 7 7 7 7 8 8 8 9 9 9 9 11 10 9 10 10 10 10 11 11 10 9 8 9 9 9 10 9 9 8 9 9 10 9 9 8 7 8 7 7 7 6 6
6 3 6 7 7 7 6 5 9 10 10 10 10 11 13 12 16 15 11 6 8 8 9 7 8 3 4 5 5 6 7 8 9 9 11 12 12 12 10 8 7 7 6 5 5 5 7 8 8 7 7 8 8 9 9 9 10 10 10 10 10 10 10 9 9 9 9 9 9 9 9 9 9 9 9 9 8 9 9 8 7 6 7 7 7 6
4 2 4 8 10 9 10 12 12 13 13 11 12 10 12 12 14 11 10 7 6 5 8 6 6 5 7 6 8 8 8 8 8 9 9 9 11 12 12 9 8 7 7 8 6 4 4 4 5 6 6 6 7 8 8 9 9 9 9 9 9 9 10 9 8 8 8 8 8 8 9 8 8 9 9 9 9 9 8 8 7 7 7 7 7 6
2 2 2 2 5 4 4 5 6 2 9 11 10 11 11 14 14 12 9 11 10 8 8 9 8 4 8 9 10 11 10 11 8 7 8 9 9 8 10 12 10 6 6 7 7 6 4 4 5 5 5 4 5 6 7 9 9 9 9 10 10 9 9 10 9 9 9 9 8 8 8 8 8 7 7 7 7 7 7 8 8 8 7 7 8 8
3 4 4 1 3 3 1 2 3 2 7 6 6 12 12 12 14 13 13 11 5 10 9 5 8 9 7 12 11 12 11 10 8 7 8 7 8 8 9 10 11 11 9 6 6 7 8 7 7 7 6 5 4 5 5 7 7 8 9 9 9 9 9 8 9 10 9 9 9 8 8 7 6 6 6 6 5 6 6 7 7 7 6 6 7 8
4 4 2 3 4 4 3 4 3 3 3 4 0 2 9 10 11 14 13 13 6 9 8 6 9 9 6 11 13 12 12 11 10 10 9 8 8 8 8 9 10 11 11 11 10 9 9 8 7 7 6 6 6 7 7 7 8 8 9 9 9 9 10 9 9 10 10 9 9 8 7 6 5 5 6 6 5 6 7 6 6 5 6 6 7 7
4 2 1 1 5 6 6 5 4 6 6 6 5 4 1 6 8 10 10 5 8 4 2 5 5 4 3 9 11 12 10 11 10 8 8 8 9 9 10 10 10 11 11 11 11 10 8 7 6 6 5 7 7 7 8 8 8 10 10 10 9 9 9 7 9 10 10 9 8 8 7 7 6 6 6 6 7 7 7 6 6 7 7 7 7 6
4 3 4 3 3 6 6 6 5 5 7 8 10 9 7 1 3 1 2 4 4 8 5 4 7 4 5 8 10 11 9 9 9 9 10 9 8 9 9 10 9 8 9 9 8 8 9 10 8 7 7 7 7 9 8 8 9 10 11 10 9 9 8 8 9 8 7 7 7 6 6 6 7 7 7 6 6 6 6 7 6 6 6 6 6 5
5 3 4 4 5 7 4 4 6 5 5 8 11 12 10 7 1 1 2 3 4 3 5 5 6 5 7 9 11 11 10 11 11 10 9 8 9 8 9 8 9 7 7 7 7 7 6 7 7 8 8 8 7 9 9 8 9 11 10 10 10 8 8 7 7 8 7 7 5 5 5 5 5 6 7 7 6 7 6 5 6 6 7 7 8 7
5 3 6 5 7 1 3 1 3 5 6 4 9 9 9 4 5 3 1 0 3 5 5 4 3 6 8 9 11 11 11 11 11 9 8 9 9 9 7 7 8 7 6 7 7 6 7 7 6 5 7 8 8 9 8 10 10 9 9 8 8 9 9 8 7 6 6 6 6 6 6 6 6 6 6 5 5 5 6 7 7 8 8 8 7 7
4 4 5 2 7 4 2 3 2 5 9 2 6 5 6 7 6 6 5 6 4 4 6 3 4 2 8 10 11 12 11 10 9 9 7 8 9 10 9 8 8 8 8 9 9 10 9 9 9 8 10 10 9 9 9 8 6 7 7 7 8 9 8 8 6 5 6 5 4 6 7 7 8 8 8 8 7 6 5 6 8 7 7 7 7 7
5 4 3 2 6 9 5 5 5 8 3 6 4 6 5 4 6 6 5 3 5 3 5 4 3 3 5 6 9 10 10 9 8 8 8 8 8 9 9 10 10 10 10 10 11 10 11 12 11 9 11 9 7 7 8 8 7 8 10 9 9 9 9 8 8 7 7 6 7 6 5 6 6 5 5 6 7 7 7 7 6 6 5 6 6 7
4 4 3 5 3 4 7 5 8 4 4 3 4 8 8 2 6 7 4 5 3 6 5 4 4 4 3 5 8 12 10 9 9 7 8 8 8 9 10 9 10 10 10 11 12 12 12 12 11 11 11 9 9 8 9 8 7 8 8 8 8 8 8 8 7 7 7 8 8 8 7 6 6 5 6 6 5 5 5 4 4 4 3 1 2 3
5 4 5 5 3 8 8 9 4 4 6 5 1 7 10 8 9 8 3 7 9 5 5 3 2 3 5 6 10 10 10 10 9 7 6 7 7 7 10 10 11 11 13 13 12 13 13 12 13 13 11 9 9 8 9 8 7 8 9 9 8 8 7 8 8 8 8 8 8 7 6 7 7 6 6 6 7 7 6 6 5 4 3 4 2 2
3 5 3 5 5 5 9 10 7 5 9 4 5 5 7 7 7 6 4 6 10 8 5 2 2 3 6 9 10 12 12 11 9 7 6 6 7 10 11 13 14 14 14 15 15 14 12 12 11 10 10 11 11 10 8 8 7 8 9 8 7 8 9 9 8 7 8 8 8 8 7 6 6 6 6 6 7 7 6 6 5 7 5 5 5 6
1 2 3 7 4 8 8 10 9 8 2 4 7 10 10 7 8 2 6 3 8 9 6 1 3 2 6 10 11 11 10 9 8 8 6 7 12 12 14 14 13 13 13 13 13 13 14 13 13 12 10 11 11 9 10 10 10 9 9 9 8 7 9 9 7 7 7 8 8 8 7 6 6 6 6 6 6 7 8 9 7 6 6 6 6 7
1 2 4 6 5 7 8 8 7 2 5 7 10 10 10 7 4 5 6 4 7 11 8 4 1 5 8 10 11 9 9 6 9 9 10 9 11 13 13 13 12 12 12 12 12 13 13 13 13 14 13 11 10 11 10 11 10 11 10 9 8 9 8 7 6 5 6 6 6 7 7 7 7 7 7 7 7 6 7 7 7 7 6 6 6 6
1 0 2 3 5 3 3 6 3 6 5 10 11 11 8 3 4 7 3 4 10 10 8 5 1 2 7 10 8 8 1 5 7 14 14 14 13 12 11 12 13 13 12 13 13 13 12 11 11 12 12 10 11 10 10 9 10 10 10 10 10 9 8 6 5 5 5 6 7 7 8 7 8 8 7 6 6 6 6 5 6 6 6 6 5 5
2 2 2 3 3 3 5 8 3 8 4 9 11 8 7 8 4 2 5 6 8 9 7 6 1 3 6 7 7 3 7 12 15 14 14 14 15 16 15 15 15 14 13 13 13 12 11 11 11 11 10 9 9 9 8 8 8 8 8 9 10 9 7 6 5 5 4 5 6 6 7 7 8 7 7 6 6 6 6 5 6 6 6 5 6 6
5 4 2 2 1 3 2 6 7 4 7 11 16 6 10 5 5 5 8 8 7 7 8 7 2 3 4 8 5 7 11 12 11 12 12 13 13 13 15 15 15 15 15 14 12 12 12 12 11 11 11 9 9 8 8 9 9 8 8 8 8 7 6 6 6 6 4 5 6 6 6 6 5 5 5 6 6 6 6 5 5 5 5 5 6 6
5 4 2 3 5 4 3 1 2 6 5 9 10 6 7 6 7 8 7 7 7 6 5 4 2 2 5 6 7 6 10 11 10 10 9 10 13 13 13 12 13 13 14 14 13 13 12 11 10 10 9 9 8 8 8 8 8 8 8 7 5 5 5 5 5 5 4 4 5 4 5 5 5 4 4 5 4 5 4 4 4 3 3 3 3 4
6 5 5 4 6 5 5 4 5 4 3 5 6 5 5 7 7 7 6 7 7 6 7 5 3 2 1 4 7 9 10 8 7 6 7 6 8 10 11 11 11 11 11 12 12 11 10 10 11 10 10 8 9 7 7 8 9 10 9 6 5 5 4 4 4 4 4 4 4 3 3 3 3 4 4 4 3 3 3 3 3 3 2 2 2 2
3 3 2 3 6 6 8 6 3 4 5 5 5 5 6 7 8 7 7 6 7 7 6 6 6 1 2 6 10 8 8 9 11 8 8 5 6 7 7 6 7 7 8 8 8 8 8 9 9 10 10 9 8 8 7 7 7 9 8 6 6 5 5 4 4 4 4 4 3 3 3 4 4 3 3 3 2 2 2 2 2 2 1 1 1 1
4 1 3 0 5 5 3 4 5 5 5 6 6 7 7 8 9 8 8 7 6 7 7 6 6 4 3 8 10 10 9 11 11 9 10 8 6 7 8 8 7 7 7 6 6 6 6 7 7 8 9 9 7 7 7 7 7 7 6 5 5 5 5 5 5 4 4 3 3 2 1 2 3 4 3 3 2 3 2 3 3 2 1 1 1 1
5 1 3 4 1 2 6 5 5 5 6 7 6 6 8 9 10 10 8 7 7 7 8 6 4 6 6 7 10 11 9 7 7 8 7 6 9 10 9 9 9 8 7 7 6 5 5 6 7 7 7 7 6 6 6 5 5 5 4 4 4 5 4 4 3 3 3 3 2 2 2 2 3 1 3 3 3 3 3 2 2 2 1 2 1 0
3 3 0 1 1 7 8 6 4 5 7 8 9 8 8 8 8 10 10 10 9 9 9 9 9 7 5 7 11 13 14 12 11 10 8 5 8 9 8 9 10 8 5 6 5 4 4 5 6 7 7 6 5 5 5 4 4 4 4 3 4 4 4 4 3 2 2 2 2 2 1 2 4 3 2 4 2 4 7 6 3 2 3 6 6 7
4 3 3 3 5 5 3 5 1 4 4 6 7 8 8 8 9 9 10 11 12 10 8 7 8 7 5 6 7 9 12 12 12 13 12 10 8 7 9 5 6 6 6 4 3 3 4 6 6 7 7 6 5 4 4 4 4 3 3 3 3 3 4 4 4 3 2 2 2 2 1 1 1 1 1 3 4 4 5 10 12 10 6 5 7 8
2 4 3 4 5 3 4 5 3 5 6 6 5 5 6 6 7 9 10 10 10 10 9 7 6 5 6 4 2 5 7 8 13 13 12 9 10 11 12 10 9 7 6 3 3 3 5 5 5 6 7 6 5 5 4 4 3 3 3 3 3 2 3 2 2 2 3 2 2 2 1 1 1 2 1 0 2 3 4 4 6 11 12 9 5 6
Wind_Direction
173 203 194 204 205 198 197 211 243 44 343 214 206 300 209 116 77 111 114 136 145 143 213 198 204 148 157 159 161 166 168 178 169 165 168 168 167 170 170 167 166 168 165 161 165 166 164 160 160 156 161 161 159 161 159 167 162 162 158 151 152 149 146 151 152 158 160 155 150 158 168 159 157 156 146 166 157 158 140 136 138 151 149 146 149 146
193 214 203 207 209 190 184 216 232 262 249 251 193 202 174 169 108 120 144 142 164 214 180 219 227 151 159 160 161 168 173 177 173 167 171 170 169 173 170 167 168 165 159 162 163 167 167 164 160 160 160 164 163 166 168 172 168 166 163 159 153 154 156 155 159 157 160 166 163 163 163 159 144 151 164 158 172 158 127 142 145 159 142 148 148 148
201 216 196 199 112 206 231 236 223 236 236 220 214 169 211 89 101 84 123 151 178 223 121 201 214 160 167 160 163 173 180 177 175 173 171 171 172 174 171 168 166 169 167 166 167 169 171 166 163 164 167 167 169 169 172 171 170 169 167 161 158 161 158 161 153 162 160 163 138 154 148 173 137 150 162 147 138 142 143 151 157 151 151 158 151 152
196 214 208 172 163 203 198 218 207 211 238 204 209 199 203 138 190 145 112 150 185 240 169 170 172 186 178 159 172 183 178 179 180 175 173 175 177 176 175 171 170 171 170 171 173 174 172 167 169 168 170 170 170 173 173 174 174 173 170 165 163 160 162 157 159 164 148 128 128 103 116 114 134 133 118 120 137 150 146 150 155 162 167 172 162 160
198 201 182 155 188 211 201 191 204 212 206 201 247 251 104 197 126 74 147 140 161 172 131 163 188 159 169 171 170 187 191 180 184 182 179 177 185 183 175 176 178 172 174 174 176 175 174 171 171 171 169 170 174 178 174 181 174 178 172 169 167 164 164 164 159 164 145 139 145 138 133 137 116 131 149 155 155 157 161 163 169 164 173 172 172 159
183 65 157 173 186 209 217 193 209 221 213 173 229 291 54 158 129 115 133 140 160 179 180 165 175 200 173 182 172 169 184 194 184 191 187 180 186 185 183 184 178 176 179 176 177 178 174 174 168 168 171 176 177 179 179 181 176 176 171 167 168 165 170 168 163 164 162 158 154 159 160 160 161 154 164 173 163 164 172 175 157 159 174 168 173 166
176 126 195 191 191 203 218 221 194 236 247 210 134 196 176 181 135 140 151 175 176 204 168 202 203 150 173 192 185 174 188 193 184 197 191 182 181 180 190 186 181 180 175 182 180 179 175 177 170 170 175 181 179 177 177 179 173 175 170 169 172 168 172 167 164 166 171 164 168 176 174 166 164 164 159 171 168 158 165 157 154 160 168 174 180 166
121 156 176 201 201 209 206 221 176 221 252 172 77 162 141 160 158 159 154 155 13 63 159 185 169 221 183 205 195 175 190 193 188 196 193 184 181 182 187 185 179 183 177 182 181 180 179 177 173 177 174 183 180 174 172 177 172 172 173 171 173 172 172 169 165 168 175 172 173 177 182 163 178 164 151 162 160 150 149 158 162 163 166 168 187 171
184 173 189 190 211 209 213 221 162 209 252 47 55 152 170 160 162 160 133 189 170 186 166 188 172 194 262 169 191 186 193 197 190 194 194 187 186 184 187 185 179 182 182 180 181 180 182 179 177 180 176 180 177 169 170 174 170 170 172 174 175 176 175 170 168 172 173 180 176 184 172 168 173 150 150 161 161 156 165 164 163 171 164 166 176 186
203 205 187 210 208 212 217 216 181 209 238 135 79 192 122 156 152 168 196 188 145 239 177 200 170 202 179 153 168 198 207 195 195 192 195 187 186 187 186 188 184 181 183 185 184 183 183 182 184 179 179 176 177 170 167 169 168 169 171 176 180 180 181 173 173 177 174 182 182 188 175 167 168 163 156 164 151 161 169 171 171 174 180 183 177 176
87 147 354 231 213 228 223 205 226 218 270 68 179 160 148 154 152 183 166 187 222 237 231 167 180 203 208 174 181 185 205 196 190 191 191 190 190 189 189 188 188 182 183 188 184 186 184 184 187 181 180 176 177 171 167 173 169 172 173 176 182 185 185 178 178 179 180 184 186 188 183 175 168 176 167 170 162 166 173 178 174 179 175 195 183 182
178 172 208 213 250 275 310 172 206 246 200 206 183 188 164 137 169 186 159 191 215 268 112 161 184 193 249 134 179 186 151 192 192 196 189 189 189 190 188 191 190 185 184 184 186 187 185 186 186 182 184 178 177 174 173 177 172 176 173 176 182 185 189 185 183 184 184 186 186 191 188 183 177 178 183 179 173 171 179 180 170 170 176 179 191 190
208 205 203 210 210 239 210 238 158 203 197 211 201 196 202 168 192 194 176 205 224 239 134 164 175 191 243 199 169 177 186 189 195 198 193 188 187 191 189 191 188 188 185 184 186 189 189 185 182 188 183 179 177 180 181 180 179 175 175 177 183 186 189 191 188 188 187 188 187 191 189 189 186 180 183 182 181 181 182 181 179 171 180 172 185 190
207 210 205 217 213 204 231 217 173 196 195 211 202 203 214 198 202 207 205 219 192 147 135 145 168 218 207 161 155 179 193 188 189 205 212 193 188 188 187 190 185 189 188 188 186 189 190 185 185 187 186 184 186 186 183 184 182 176 176 179 186 186 188 190 193 191 191 193 191 190 192 191 188 190 188 186 190 178 178 180 190 185 184 178 191 181
204 187 207 205 209 177 211 236 202 216 186 210 200 206 227 217 216 213 211 220 204 181 134 125 184 153 202 104 154 164 183 185 193 187 201 211 198 190 189 187 186 187 190 193 190 188 190 188 187 188 189 191 191 191 188 184 179 177 178 178 186 187 186 190 195 194 196 195 195 191 195 192 194 192 190 191 191 186 188 188 181 194 187 187 179 178
241 256 168 191 218 172 205 212 233 211 200 207 211 207 223 227 215 233 261 248 146 77 138 185 235 77 63 148 141 144 157 176 204 179 174 202 215 203 193 190 188 186 187 191 196 191 192 191 190 192 193 195 196 191 191 183 178 181 179 178 185 188 187 190 193 197 199 200 196 194 197 196 200 198 193 184 190 191 197 178 189 177 196 184 158 171
179 243 105 181 199 193 200 198 200 219 208 186 213 219 219 256 237 229 232 292 311 181 208 181 196 171 125 175 165 161 163 176 182 167 175 182 208 210 196 190 189 188 189 188 195 196 194 195 192 195 195 198 196 192 191 184 182 182 176 178 182 188 190 190 192 197 200 200 203 198 199 201 197 201 206 195 190 196 185 183 187 182 183 167 175 169
297 168 151 179 194 205 214 195 205 206 254 181 213 203 218 285 302 270 246 179 242 240 148 181 212 165 192 180 170 178 183 183 185 184 182 185 192 205 200 193 189 192 190 190 193 196 197 194 193 194 196 198 197 192 187 186 187 181 181 181 181 187 194 193 192 196 197 198 203 202 204 205 208 205 207 212 189 192 183 182 196 182 174 188 178 194
274 259 168 190 201 183 201 197 204 212 223 248 226 197 218 192 217 206 264 226 222 230 174 203 215 213 211 155 183 189 192 183 185 187 189 185 186 195 205 206 201 194 190 190 192 191 192 191 189 192 193 192 195 193 188 186 185 181 185 186 188 191 193 195 196 195 197 198 200 200 202 204 206 213 209 206 198 196 194 198 181 196 172 181 175 173
223 275 137 168 205 157 190 201 209 192 199 236 271 232 211 249 228 215 213 260 257 234 237 141 171 231 202 168 169 180 182 176 184 187 193 188 183 183 192 195 192 190 188 189 187 188 190 191 191 190 191 189 190 188 186 187 186 186 184 183 192 190 193 196 199 193 199 200 206 200 196 201 206 210 214 203 196 204 196 205 189 197 179 197 173 175
245 219 263 138 161 163 204 193 212 191 190 196 211 219 202 221 242 269 228 237 219 244 252 236 214 182 95 30 153 151 162 176 179 187 189 183 183 182 179 180 177 179 183 186 187 188 189 192 191 189 186 186 187 189 189 186 185 189 186 183 187 186 192 193 196 194 200 203 202 204 201 199 198 206 207 210 201 215 202 199 206 196 204 179 196 171
237 204 251 150 192 200 213 187 219 205 199 208 209 217 213 208 209 215 218 207 235 234 240 243 230 99 67 107 57 143 151 164 176 178 183 181 177 183 180 180 169 171 179 183 184 186 187 187 192 183 179 182 183 187 191 190 183 185 187 179 186 185 191 192 193 189 196 204 203 204 201 206 198 202 208 212 206 212 202 203 196 202 204 195 186 196
312 305 268 224 195 198 221 171 208 305 236 216 213 220 214 223 222 217 230 200 211 233 271 257 279 120 97 130 145 154 150 154 167 174 178 175 175 171 173 164 164 163 165 173 181 180 179 175 183 175 174 180 182 186 188 187 185 184 185 180 180 184 183 185 192 186 187 194 199 204 205 207 200 199 205 209 213 212 210 197 200 196 203 213 189 186
258 241 213 258 304 79 103 123 220 233 232 230 225 232 214 219 219 229 229 228 230 206 222 210 230 118 124 109 147 155 167 155 160 173 167 165 165 162 159 147 138 147 140 142 145 140 147 156 168 166 171 175 178 182 185 186 185 184 183 182 180 185 180 183 187 183 179 190 197 202 202 202 210 205 203 207 210 216 222 214 198 193 207 210 212 189
240 157 278 212 196 180 182 185 203 201 221 231 227 213 236 227 222 230 234 225 235 219 237 239 239 126 131 155 142 165 172 169 164 164 172 172 174 177 171 150 143 140 135 128 135 140 153 157 161 170 175 174 179 184 185 187 188 186 184 182 180 180 178 180 180 184 184 193 193 197 203 203 205 206 208 212 208 207 213 223 219 199 211 213 212 206
254 278 251 230 202 186 190 193 192 188 204 216 231 227 214 234 234 226 219 198 241 226 236 237 243 91 126 162 161 169 170 170 163 161 166 175 174 173 172 167 163 164 162 163 165 174 178 170 160 166 172 177 184 184 184 187 191 190 186 185 179 175 176 178 174 178 177 188 189 189 197 207 213 210 208 212 215 210 208 212 220 221 206 219 219 211
259 208 272 303 314 291 2 37 24 303 173 211 194 223 210 223 235 233 239 230 220 226 228 229 255 160 165 177 172 176 176 175 160 161 162 162 174 176 181 183 181 176 165 164 159 165 170 183 195 186 169 175 183 180 184 188 189 189 187 186 181 177 176 174 172 176 178 183 185 184 194 203 212 219 216 211 225 222 209 210 212 219 224 210 215 216
237 216 103 34 36 39 41 357 28 356 199 189 205 206 218 216 220 228 227 236 207 237 241 224 181 222 195 172 178 174 178 166 168 178 160 158 163 168 171 182 186 187 177 151 158 172 183 191 201 196 189 169 177 173 181 179 181 183 187 183 180 174 174 174 170 177 179 181 180 182 186 197 206 217 225 229 216 223 224 220 216 212 221 227 216 220
271 219 79 272 80 82 87 92 108 114 95 126 152 188 205 209 210 226 230 236 232 227 251 164 184 223 189 172 168 173 172 160 177 179 175 170 165 158 160 170 184 187 180 175 175 177 181 187 185 178 174 185 176 177 183 177 181 187 190 191 191 181 188 185 175 181 185 178 179 178 178 176 186 199 207 217 216 221 221 221 219 212 210 212 226 225
284 200 22 347 92 84 90 114 149 141 120 103 97 94 47 209 218 229 245 252 234 267 286 212 214 229 120 156 160 158 161 163 165 160 161 168 176 175 182 187 187 188 182 180 177 172 177 175 174 164 161 182 179 185 190 175 172 181 182 187 187 183 178 178 182 183 188 181 181 177 169 174 189 204 211 214 217 221 218 216 214 212 214 217 218 225
290 151 303 258 191 84 98 124 138 146 138 100 69 49 40 117 185 185 227 193 230 225 255 261 213 185 88 121 136 134 144 155 152 160 169 169 174 179 180 180 176 181 181 176 168 172 178 182 176 169 168 172 181 185 185 179 169 170 171 175 172 156 154 177 179 179 176 173 159 181 187 189 192 199 212 212 220 221 225 226 219 219 220 219 218 227
294 188 238 262 229 121 85 117 127 135 133 99 49 29 21 13 105 85 216 35 266 218 222 198 208 193 119 133 132 137 150 160 155 157 157 157 166 168 171 166 159 162 160 159 172 174 154 158 172 172 166 173 156 141 139 140 149 163 163 171 161 151 164 169 173 174 169 157 143 154 169 179 187 201 213 216 217 220 220 227 233 232 229 228 222 216
345 292 225 217 209 204 75 336 126 171 187 161 33 15 355 359 7 325 167 63 323 323 235 235 18 24 133 142 144 146 156 157 155 155 150 151 160 164 153 137 144 153 146 127 132 136 136 138 139 154 150 136 138 143 134 141 149 152 156 145 130 156 169 174 170 158 166 160 167 179 187 182 187 188 197 213 227 236 227 224 227 233 231 234 238 234
298 301 226 318 226 215 356 337 294 220 209 169 46 10 10 14 6 353 16 3 40 352 40 28 34 103 147 160 154 152 158 160 152 152 160 160 157 139 138 142 136 129 126 119 111 108 105 100 78 66 72 74 62 74 86 83 77 62 63 90 114 123 125 128 118 108 95 100 130 171 183 193 198 202 194 192 191 194 211 223 228 228 230 235 231 235
304 285 230 312 222 215 254 265 231 228 134 89 82 43 11 1 358 352 11 17 30 31 17 39 59 174 150 158 151 153 146 151 155 152 160 155 159 145 143 141 135 131 125 119 112 111 111 107 96 89 92 79 83 85 86 85 87 96 94 87 93 104 108 113 110 104 112 109 105 102 106 130 134 134 155 175 176 180 188 197 199 213 220 222 224 221
327 257 234 229 245 173 228 210 234 173 72 122 51 23 5 262 353 306 189 65 53 12 4 17 67 131 152 175 156 136 147 132 130 137 147 152 157 152 147 144 140 136 126 115 113 109 106 106 103 100 98 94 83 74 79 79 78 81 84 84 77 73 70 78 87 96 109 109 108 108 100 93 101 108 122 128 135 144 147 148 152 161 155 192 234 222
333 290 249 220 183 234 219 211 209 122 158 89 53 25 6 5 346 350 17 57 12 358 353 19 72 130 178 150 133 142 132 135 135 128 139 141 146 144 143 141 139 124 117 113 107 107 107 109 104 103 100 94 88 84 82 85 81 82 79 78 80 79 75 69 63 67 86 94 96 102 107 119 120 121 113 120 121 124 129 135 139 134 148 159 155 86
339 307 10 257 187 233 229 216 197 185 223 100 55 5 349 339 328 297 290 94 16 9 349 18 81 146 164 140 144 147 153 149 148 134 130 121 120 114 125 128 120 117 115 115 116 112 110 106 101 100 108 108 96 92 97 103 96 88 84 77 83 90 81 68 61 63 70 74 76 85 98 112 122 127 134 138 137 137 130 119 99 92 98 91 90 75
265 276 277 251 206 214 223 228 213 221 110 29 9 348 346 333 304 289 242 103 25 2 2 356 67 148 159 161 149 159 178 174 157 136 123 124 117 121 125 123 112 112 115 118 124 124 117 115 115 108 97 97 100 103 106 107 105 98 93 93 85 72 78 70 48 52 61 68 77 91 96 101 109 115 120 122 124 126 124 114 109 107 105 101 93 87
277 206 221 220 228 216 224 227 222 32 82 21 353 343 344 6 309 242 221 139 11 346 335 352 96 165 166 155 169 187 195 190 152 142 143 137 123 125 131 126 120 124 129 133 131 124 121 127 130 127 126 121 118 117 115 114 108 101 98 95 89 78 68 73 73 62 75 83 83 95 100 94 90 93 101 100 95 88 95 106 120 128 123 117 115 112
20 112 268 250 219 158 251 214 136 115 71 2 342 331 337 22 293 240 255 23 347 337 322 314 97 153 157 160 181 193 145 324 140 135 141 138 132 126 124 130 135 135 136 131 122 126 129 130 128 122 118 119 125 122 116 114 110 105 104 102 92 85 83 75 68 73 81 87 91 90 88 91 90 88 87 90 99 104 102 104 105 102 99 100 98 101
128 303 154 257 262 233 213 220 172 75 37 326 330 321 324 267 227 27 26 321 319 324 324 307 10 148 161 184 181 170 93 87 109 138 142 146 140 137 138 136 138 137 133 123 131 135 128 119 112 109 105 107 107 108 107 100 96 100 102 99 96 99 99 102 100 86 78 85 86 87 90 96 105 105 93 84 86 89 89 91 106 108 115 115 112 110
20 302 55 51 354 230 239 221 201 191 48 357 325 260 11 346 40 330 327 331 336 335 315 302 287 142 189 173 146 127 110 105 117 140 148 145 142 144 144 147 143 141 138 137 136 129 125 122 122 120 119 115 110 110 112 109 104 100 96 97 101 109 112 109 107 107 107 101 95 90 91 90 94 98 107 110 97 95 94 99 101 97 101 114 116 116
1 286 73 80 13 303 214 105 52 23 358 1 357 40 10 9 331 327 322 333 342 341 342 309 337 107 182 166 133 132 117 136 152 151 140 147 143 141 139 140 145 143 144 143 140 137 129 126 126 122 113 107 109 112 114 113 109 104 98 95 103 106 108 111 107 113 112 102 95 103 103 101 97 95 97 96 97 99 103 97 96 109 130 125 125 128
27 20 359 18 34 3 43 76 74 48 26 34 27 37 15 355 354 335 330 317 332 357 349 309 29 351 203 179 133 120 116 130 118 102 123 138 144 144 145 143 143 142 141 140 137 137 139 131 126 120 116 112 110 109 113 118 120 119 113 114 113 106 109 120 129 134 123 107 107 108 107 105 109 110 109 118 124 125 121 122 151 145 151 161 145 128
71 349 301 288 94 99 72 58 94 66 42 55 59 37 26 18 19 4 6 0 11 349 345 4 345 347 179 138 118 112 128 127 120 107 98 101 108 93 108 119 124 120 118 121 126 134 123 119 115 111 107 105 106 108 109 114 118 116 115 123 121 118 114 106 100 96 96 107 113 126 145 152 139 136 137 129 131 124 126 131 136 115 130 105 128 133
66 298 257 167 121 210 106 99 74 62 49 43 54 54 48 37 31 20 25 19 14 4 19 24 34 34 70 117 118 111 108 119 125 124 116 116 112 114 128 123 114 118 118 108 99 110 111 108 108 104 101 96 90 97 102 104 104 105 113 118 124 115 109 108 104 102 105 112 126 121 90 144 159 151 145 167 154 151 160 147 141 120 133 168 142 114
142 27 267 81 201 360 99 114 101 84 74 53 39 41 39 38 36 35 31 33 29 34 33 41 61 92 120 123 115 120 135 151 122 121 121 121 133 106 107 127 130 113 106 105 104 99 100 101 103 101 94 87 82 79 83 92 100 110 113 104 94 98 106 108 113 117 119 119 123 132 148 138 46 293 156 157 174 152 145 145 137 120 111 74 60 52
31 230 83 199 196 103 124 137 129 111 88 72 62 53 43 35 38 40 38 39 39 43 50 53 52 65 75 122 119 117 110 103 100 84 74 82 104 115 111 98 103 97 97 113 108 107 106 113 108 101 98 93 83 76 72 75 82 95 104 107 105 116 116 105 99 95 112 110 103 92 105 147 177 193 151 142 164 85 34 5 18 90 91 49 15 9
216 205 94 210 212 182 106 97 151 233 138 89 59 42 34 34 41 44 42 41 40 41 38 55 60 49 80 122 143 143 147 154 156 151 147 135 119 111 112 117 92 103 107 85 82 91 107 108 120 126 120 108 95 88 83 74 73 73 89 91 103 119 123 124 123 121 116 107 88 102 152 161 133 95 170 170 145 122 98 68 56 33 17 97 56 48
292 39 280 279 333 65 87 90 61 71 77 59 58 43 38 27 38 43 41 41 41 42 40 39 50 72 68 59 114 185 175 165 167 170 166 165 167 158 158 163 159 155 150 126 106 143 135 130 142 141 127 121 122 116 116 110 99 91 88 86 95 113 110 136 136 133 129 132 114 47 51 115 104 141 193 106 142 148 156 161 75 51 47 56 69 45